Livingston, MT

6:34 AM MST on November 19, 2017 (GMT -0700)
Mission

Weather History for KLVM - March, 2013

Change the Weather History Date:

Wednesday, March 27, 2013

  Actual Average Record
Temperature  
Mean Temperature 38 °F 38 °F  
Max Temperature 59 °F 50 °F 74 °F (2015)
Min Temperature 17 °F 26 °F 2 °F (1965)
Degree Days  
Heating Degree Days 27 27  
Month to date heating degree days 805  
Since 1 July heating degree days 6153  
Cooling Degree Days 0 0  
Month to date cooling degree days 0  
Year to date cooling degree days 0  
Moisture  
Dew Point 19 °F    
Average Humidity 53    
Maximum Humidity 81    
Minimum Humidity 22    
Precipitation  
Precipitation 0.00 in 0.04 in 1.11 in (1981)
Month to date precipitation 0.69  
Year to date precipitation 1.68  
Sea Level Pressure  
Sea Level Pressure 30.02 in    
Wind  
Wind Speed 5 mph (WSW)    
Max Wind Speed 20 mph    
Max Gust Speed 28 mph    
Visibility 10 miles    
Events      
T = Trace of Precipitation, MM = Missing Value Source: NWS Daily Summary

Daily Weather History Graph

Daily Weather History Graph

Search for Another Location

Airport or City:

Trip Planner

Search our weather history database for the weather conditions in past years. The results will help you decide how hot, cold, wet, or windy it might be!

Date:

Astronomy

Mar. 27, 2013 Rise Set
Actual Time 7:10 AM MDT 7:44 PM MDT
Civil Twilight 6:41 AM MDT 8:13 PM MDT
Nautical Twilight 6:05 AM MDT 8:49 PM MDT
Astronomical Twilight 5:29 AM MDT 9:26 PM MDT
Moon 8:36 PM MDT (3/27) 7:01 AM MDT (3/27)
Length of Visible Light 13h 32m
Length of Day
12h 33m
Full, 100% of the Moon is Illuminated
Mar 27
Full
Apr 2
Last Quarter
Apr 10
New
Apr 18
First Quarter
Apr 25
Full

Hourly Weather History & Observations

Time (MDT) Temp. Windchill Dew Point Humidity Pressure Visibility Wind Dir Wind Speed Gust Speed Precip Events Conditions
12:53 AM 21.9 °F - 14.0 °F 72% 30.03 in 10.0 mi Calm Calm - N/A   Clear
1:53 AM 19.9 °F - 14.0 °F 78% 30.02 in 10.0 mi Calm Calm - N/A   Clear
2:53 AM 19.0 °F - 12.9 °F 77% 30.03 in 10.0 mi Calm Calm - N/A   Clear
3:53 AM 19.0 °F - 12.9 °F 77% 30.02 in 10.0 mi Calm Calm - N/A   Clear
4:53 AM 18.0 °F - 12.9 °F 81% 30.03 in 10.0 mi Calm Calm - N/A   Clear
5:53 AM 17.1 °F - 12.0 °F 81% 30.04 in 10.0 mi Calm Calm - N/A   Partly Cloudy
6:53 AM 19.0 °F 11.1 °F 14.0 °F 81% 30.05 in 10.0 mi NNW 5.8 mph - N/A   Clear
7:53 AM 21.9 °F 17.2 °F 16.0 °F 78% 30.06 in 10.0 mi Variable 3.5 mph - N/A   Clear
8:53 AM 28.9 °F 25.2 °F 19.9 °F 69% 30.06 in 10.0 mi WNW 3.5 mph - N/A   Clear
9:53 AM 37.0 °F 34.5 °F 21.0 °F 52% 30.04 in 10.0 mi ESE 3.5 mph - N/A   Clear
10:53 AM 50.0 °F - 19.9 °F 31% 30.00 in 10.0 mi WSW 19.6 mph 25.3 mph N/A   Clear
11:53 AM 53.1 °F - 21.9 °F 30% 30.02 in 10.0 mi WSW 18.4 mph 25.3 mph N/A   Clear
12:53 PM 55.0 °F - 21.0 °F 27% 29.99 in 10.0 mi SW 16.1 mph 21.9 mph N/A   Clear
1:53 PM 55.9 °F - 19.9 °F 25% 29.99 in 10.0 mi SW 11.5 mph 24.2 mph N/A   Partly Cloudy
2:53 PM 57.0 °F - 19.9 °F 24% 29.97 in 10.0 mi Variable 4.6 mph - N/A   Mostly Cloudy
3:53 PM 59.0 °F - 19.9 °F 22% 29.96 in 10.0 mi WSW 10.4 mph 16.1 mph N/A   Overcast
4:53 PM 55.9 °F - 21.0 °F 26% 29.97 in 10.0 mi SW 16.1 mph 21.9 mph N/A   Mostly Cloudy
5:53 PM 54.0 °F - 24.1 °F 31% 30.00 in 10.0 mi SW 16.1 mph 27.6 mph N/A   Overcast
6:53 PM 52.0 °F - 26.1 °F 37% 30.01 in 10.0 mi SSW 17.3 mph 23.0 mph N/A   Overcast
7:53 PM 45.0 °F 39.7 °F 25.0 °F 46% 30.03 in 10.0 mi SSW 10.4 mph - N/A   Partly Cloudy
8:53 PM 43.0 °F 39.5 °F 25.0 °F 49% 30.04 in 10.0 mi NE 5.8 mph - N/A   Scattered Clouds
9:53 PM 42.1 °F 38.4 °F 25.0 °F 51% 30.03 in 10.0 mi NW 5.8 mph - N/A   Partly Cloudy
10:53 PM 39.9 °F 36.7 °F 25.0 °F 55% 30.00 in 10.0 mi NW 4.6 mph - N/A   Mostly Cloudy
11:53 PM 36.0 °F 30.3 °F 24.1 °F 62% 30.00 in 10.0 mi WNW 6.9 mph - N/A   Mostly Cloudy